This demonstration page uses our WeatherBlox Daily Observations layout. Learn more.

Left ArrowRight Arrow

40.92945, -100.16068

Hourly Observations for April 12, 2020

Temp ( °F °C ) Dew Point ( °F °C ) Humidity (%) Winds ( mph kmh ) Pressure ( in mb ) Visibility ( mi km ) Precip ( " mm )
12:15 am 00:15 Partly Cloudy 42 5.6 37 3 84 84 NNE 15 24 29.68 1005 10 16 0.00 0.00
12:35 am 00:35 Mostly Cloudy 42 5.5 37 3 84 84 NNE 23 37 29.67 1005 10 16 0.00 0.00
12:55 am 00:55 Cloudy 42 5.6 38 3.1 84 84 NNE 16 26 29.68 1005 10 16 0.00 0.00
1:15 am 01:15 Cloudy 42 5.8 38 3.2 84 84 NNE 17 28 29.71 1006 10 16 0.00 0.00
1:35 am 01:35 Cloudy 42 5.8 38 3.3 84 84 NNE 20 31 29.72 1006 10 16 0.00 0.00
1:55 am 01:55 Cloudy 40 4.6 37 2.9 89 89 N 25 41 29.73 1007 10 16 0.00 0.00
2:15 am 02:15 Cloudy 38 3.4 36 2.2 92 92 N 25 41 29.74 1007 10 16 0.00 0.00
2:35 am 02:35 Cloudy 37 2.8 35 1.8 93 93 N 24 39 29.74 1007 10 16 0.00 0.00
2:55 am 02:55 Cloudy 37 2.6 34 1.3 91 91 N 28 44 29.73 1007 10 16 0.00 0.00
3:15 am 03:15 Cloudy 36 2.2 34 1 92 92 N 28 44 29.73 1007 10 16 0.00 0.00
3:35 am 03:35 Cloudy 36 2 33 0.6 91 91 N 25 41 29.74 1007 10 16 0.00 0.00
3:55 am 03:55 Cloudy 35 1.5 32 0.1 91 91 NNE 25 41 29.74 1007 10 16 0.00 0.00
4:15 am 04:15 Cloudy 34 1.2 32 0 92 92 N 30 48 29.74 1007 10 16 0.00 0.00
4:35 am 04:35 Cloudy 34 1 31 -0.3 91 91 NNE 29 46 29.77 1008 10 16 0.00 0.00
4:55 am 04:55 Cloudy 33 0.8 31 -0.5 91 91 N 29 46 29.78 1008 10 16 0.00 0.00
5:15 am 05:15 Cloudy 33 0.7 29 -1.5 85 85 N 32 52 29.78 1008 10 16 0.00 0.00
5:35 am 05:35 Cloudy 33 0.7 28 -2 82 82 N 33 54 29.77 1008 10 16 0.00 0.00
5:55 am 05:55 Cloudy 33 0.5 28 -2.5 81 81 NNE 33 54 29.80 1009 10 16 0.00 0.00
6:15 am 06:15 Cloudy 32 0.1 27 -2.9 80 80 N 35 56 29.83 1010 7 11 0.00 0.00
6:35 am 06:35 Cloudy 32 0 26 -3.5 78 78 N 35 56 29.85 1011 10 16 0.00 0.00
6:55 am 06:55 Cloudy 32 -0.2 27 -2.6 84 84 N 29 46 29.87 1011 7 11 0.00 0.00
7:15 am 07:15 Cloudy 31 -0.5 28 -2 90 90 N 33 54 29.87 1012 7 11 0.00 0.00
7:35 am 07:35 Cloudy with Mist and Fog 31 -0.7 27 -2.7 87 87 NNE 31 50 29.88 1012 5 8 0.00 0.00
7:55 am 07:55 Cloudy with Mist and Fog 31 -0.7 27 -3 85 85 N 28 44 29.92 1013 5 8 0.00 0.00
8:15 am 08:15 Cloudy with Light Wintry Mix 31 -0.8 27 -2.6 88 88 NNE 25 41 29.94 1014 5 8 0.00 0.00
8:35 am 08:35 Cloudy 31 -0.7 26 -3.1 84 84 N 25 41 29.95 1014 7 11 0.00 0.00
8:55 am 08:55 Cloudy with Light Wintry Mix 31 -0.8 28 -2.1 91 91 N 28 44 29.96 1015 3 5 0.00 0.00
9:15 am 09:15 Cloudy with Light Wintry Mix 30 -1 27 -2.8 88 88 N 30 48 29.98 1015 5 8 0.00 0.00
9:35 am 09:35 Windy with Snow Likely 30 -1.1 26 -3.3 85 85 N 30 48 30.00 1016 3 5 0.00 0.00
9:55 am 09:55 Windy with Snow Likely 29 -1.7 26 -3.5 88 88 N 30 48 30.00 1016 1 2 0.00 0.00
10:15 am 10:15 Windy with Snow Likely 29 -1.5 26 -3.2 88 88 N 31 50 30.00 1016 4 6 0.00 0.00
10:35 am 10:35 Windy with Snow Likely 29 -1.4 27 -2.9 90 90 N 31 50 30.00 1016 2 2 0.00 0.00
10:55 am 10:55 Windy with Snow Likely 29 -1.6 26 -3.1 90 90 N 31 50 30.01 1016 1 1 0.00 0.00
11:15 am 11:15 Windy with Snow Likely 31 -0.8 26 -3.3 83 83 N 33 54 30.01 1016 3 5 0.00 0.00
11:35 am 11:35 Cloudy 30 -1.1 24 -4.2 80 80 N 29 46 30.05 1018 10 16 0.00 0.00
11:55 am 11:55 Cloudy 30 -1 25 -4.1 80 80 N 30 48 30.06 1018 10 16 0.00 0.00
12:15 pm 12:15 Cloudy 30 -1.2 24 -4.4 79 79 N 33 54 30.05 1018 10 16 0.00 0.00
12:35 pm 12:35 Cloudy 31 -0.8 24 -4.6 76 76 N 33 54 30.06 1018 10 16 0.00 0.00
12:55 pm 12:55 Cloudy 31 -0.6 23 -4.8 74 74 N 30 48 30.06 1018 10 16 0.00 0.00
1:15 pm 13:15 Cloudy 31 -0.5 24 -4.6 74 74 N 32 52 30.05 1018 10 16 0.00 0.00
1:35 pm 13:35 Cloudy 32 0 23 -5.2 68 68 N 32 52 30.06 1018 10 16 0.00 0.00
1:55 pm 13:55 Mostly Cloudy 33 0.6 21 -5.9 62 62 N 32 52 30.05 1018 10 16 0.00 0.00
2:15 pm 14:15 Mostly Cloudy 32 0.1 22 -5.8 65 65 N 33 54 30.07 1018 10 16 0.00 0.00
2:35 pm 14:35 Cloudy 32 0.1 22 -5.4 67 67 N 25 41 30.08 1018 10 16 0.00 0.00
2:55 pm 14:55 Cloudy 33 0.5 21 -6.1 62 62 N 36 57 30.08 1019 10 16 0.00 0.00
3:15 pm 15:15 Mostly Cloudy 33 0.7 20 -6.6 59 59 N 28 44 30.08 1019 10 16 0.00 0.00
3:35 pm 15:35 Mostly Cloudy 34 1.3 20 -6.8 55 55 N 28 44 30.07 1018 10 16 0.00 0.00
3:55 pm 15:55 Cloudy 35 1.8 20 -6.6 54 54 NNW 37 59 30.08 1019 10 16 0.00 0.00
4:15 pm 16:15 Cloudy 35 1.4 20 -6.7 55 55 NNW 33 54 30.08 1019 10 16 0.00 0.00
4:35 pm 16:35 Mostly Cloudy 34 1 18 -7.6 53 53 NNW 35 56 30.11 1020 10 16 0.00 0.00
4:55 pm 16:55 Mostly Cloudy 34 1.1 18 -8 51 51 N 32 52 30.12 1020 10 16 0.00 0.00
5:15 pm 17:15 Mostly Cloudy 34 0.9 19 -7.3 55 55 NNW 31 50 30.12 1020 10 16 0.00 0.00
5:35 pm 17:35 Mostly Cloudy 32 0.2 17 -8.2 54 54 N 29 46 30.14 1020 10 16 0.00 0.00
5:55 pm 17:55 Partly Cloudy 33 0.4 17 -8.3 52 52 N 28 44 30.14 1021 10 16 0.00 0.00
6:15 pm 18:15 Partly Cloudy 32 0 17 -8.4 54 54 N 28 44 30.15 1021 10 16 0.00 0.00
6:35 pm 18:35 Partly Cloudy 32 -0.1 17 -8.1 55 55 N 29 46 30.16 1021 10 16 0.00 0.00
6:55 pm 18:55 Partly Cloudy 30 -1.1 17 -8.4 58 58 N 29 46 30.18 1022 10 16 0.00 0.00
7:15 pm 19:15 Partly Cloudy 30 -1.3 17 -8.4 59 59 N 28 44 30.21 1023 10 16 0.00 0.00
7:35 pm 19:35 Partly Cloudy 29 -1.8 17 -8.6 60 60 N 23 37 30.22 1023 10 16 0.00 0.00
7:55 pm 19:55 Mostly Cloudy 28 -2.3 16 -8.7 62 62 N 22 35 30.22 1023 10 16 0.00 0.00
8:15 pm 20:15 Partly Cloudy 27 -3 16 -9 64 64 N 21 33 30.24 1024 10 16 0.00 0.00
8:35 pm 20:35 Partly Cloudy 26 -3.5 15 -9.2 65 65 N 20 31 30.24 1024 10 16 0.00 0.00
8:55 pm 20:55 Partly Cloudy 25 -4 16 -9.1 68 68 NNW 12 19 30.27 1025 10 16 0.00 0.00
9:15 pm 21:15 Partly Cloudy 25 -4.1 16 -9.1 69 69 N 14 22 30.26 1025 10 16 0.00 0.00
9:35 pm 21:35 Clear 24 -4.4 16 -9.1 70 70 NNW 12 19 30.27 1025 10 16 0.00 0.00
9:55 pm 21:55 Clear 23 -5.1 16 -9.1 74 74 NW 9 15 30.30 1026 10 16 0.00 0.00
10:15 pm 22:15 Clear 23 -5.1 16 -9 74 74 NW 10 17 30.31 1026 10 16 0.00 0.00
10:35 pm 22:35 Clear 22 -5.5 15 -9.2 75 75 NW 12 19 30.30 1026 10 16 0.00 0.00
10:55 pm 22:55 Clear 22 -5.7 15 -9.3 76 76 NW 10 17 30.30 1026 10 16 0.00 0.00
11:15 pm 23:15 Clear 22 -5.8 15 -9.5 75 75 WNW 10 17 30.31 1026 10 16 0.00 0.00
11:35 pm 23:35 Clear 21 -6 15 -9.5 77 77 NW 10 17 30.31 1026 10 16 0.00 0.00
11:55 pm 23:55 Clear 21 -6 15 -9.7 75 75 WNW 10 17 30.32 1027 10 16 0.00 0.00

Powered by AerisWeather